Temp
64 64 64 63 64 63 63 64 64 62 63 62 61 60 59 59 59 59 58 58 55 54
64 64 64 64 64 64 64 64 63 62 61 62 60 60 59 59 58 58 57 57 55 53
65 65 66 66 64 64 65 63 61 61 61 61 60 60 59 59 59 57 56 55 51 49
64 65 65 64 64 64 63 63 62 61 61 60 60 60 59 59 58 54 54 48 49 49
63 62 62 62 64 64 62 63 62 61 60 60 60 59 57 56 54 52 51 49 45 45
56 59 61 62 62 62 62 62 60 60 59 59 59 57 55 56 54 52 52 50 46 44
50 53 54 56 57 58 60 60 60 60 60 58 56 54 54 53 51 50 49 48 47 46
47 48 49 50 51 52 52 53 53 53 52 52 51 51 50 51 50 48 46 44 43 43
45 44 45 45 43 43 43 44 44 42 43 44 46 44 44 45 45 42 41 38 38 36
39 40 40 39 40 40 40 40 39 40 40 40 40 42 42 41 40 38 38 37 35 34
38 37 37 39 38 37 37 37 37 38 38 38 37 41 42 39 37 36 36 35 35 35
36 31 35 35 36 38 35 34 35 33 34 34 34 40 41 38 34 34 33 34 34 35
33 31 35 35 33 32 33 32 32 33 33 33 33 38 40 37 33 33 32 32 32 33
30 33 34 33 32 32 32 32 33 32 32 33 33 34 39 38 33 33 31 31 30 32
MSLP
1016.48 1016.95 1017.17 1017.41 1017.59 1017.83 1018.00 1017.98 1018.21 1018.74 1018.99 1019.35 1019.67 1020.01 1020.58 1021.11 1021.37 1021.63 1021.88 1022.08 1022.31 1022.48
1015.10 1015.57 1015.62 1016.05 1016.63 1016.82 1017.05 1017.20 1017.51 1017.62 1018.05 1018.22 1018.70 1019.05 1019.36 1019.89 1020.12 1020.48 1020.59 1020.91 1020.94 1021.10
1013.94 1014.47 1014.80 1015.33 1015.58 1015.75 1015.87 1016.18 1016.43 1016.82 1017.17 1017.46 1017.70 1017.95 1018.46 1018.74 1018.85 1019.29 1019.60 1019.70 1020.39 1020.81
1013.28 1013.62 1014.06 1014.33 1014.49 1014.64 1015.02 1015.20 1015.53 1015.81 1016.12 1016.33 1016.70 1017.07 1017.56 1017.78 1018.12 1018.51 1018.79 1019.20 1019.45 1019.75
1012.73 1013.03 1013.39 1013.57 1013.66 1014.03 1014.33 1014.62 1014.76 1015.20 1015.53 1015.81 1016.12 1016.46 1016.82 1016.98 1017.35 1017.73 1018.08 1018.40 1019.01 1019.32
1012.51 1012.61 1012.74 1012.98 1013.23 1013.43 1013.65 1013.90 1014.33 1014.71 1014.86 1015.03 1015.16 1015.56 1015.91 1016.13 1016.51 1016.89 1017.08 1017.48 1018.11 1018.48
1012.39 1012.44 1012.52 1012.62 1012.79 1012.97 1013.12 1013.31 1013.60 1013.79 1014.03 1014.25 1014.51 1014.92 1015.22 1015.58 1015.85 1016.02 1016.43 1016.69 1017.17 1017.68
1012.41 1012.41 1012.44 1012.53 1012.58 1012.66 1012.79 1012.89 1013.05 1013.40 1013.61 1013.83 1014.14 1014.34 1014.74 1015.23 1015.38 1015.54 1015.98 1016.53 1017.09 1017.58
1012.68 1012.74 1012.96 1013.07 1013.18 1013.24 1013.36 1013.58 1013.65 1014.00 1014.22 1014.44 1014.55 1014.70 1014.95 1015.18 1015.57 1015.84 1016.10 1016.84 1017.44 1017.73
1013.01 1013.29 1013.48 1013.49 1013.48 1013.68 1013.88 1014.06 1014.23 1014.20 1014.50 1014.60 1014.65 1014.76 1014.84 1015.19 1015.65 1015.97 1016.35 1016.68 1017.21 1017.82
1013.53 1013.67 1013.84 1013.99 1014.09 1014.24 1014.34 1014.37 1014.36 1014.40 1014.60 1014.80 1014.79 1014.80 1014.95 1015.19 1015.50 1016.02 1016.47 1016.79 1017.06 1017.47
1014.16 1014.41 1014.56 1014.61 1014.69 1014.67 1014.77 1014.86 1015.06 1015.15 1015.20 1015.26 1015.07 1015.02 1015.02 1015.51 1016.11 1016.51 1017.08 1017.52 1017.55 1017.85
1014.51 1014.74 1014.77 1014.84 1015.06 1015.33 1015.42 1015.53 1015.45 1015.45 1015.42 1015.37 1015.37 1015.27 1015.40 1015.86 1016.23 1016.68 1017.01 1018.03 1018.29 1018.42
1014.99 1015.02 1015.21 1015.25 1015.39 1015.56 1015.63 1015.69 1015.75 1015.77 1015.75 1015.64 1015.68 1015.41 1015.58 1015.84 1016.01 1016.17 1016.68 1017.29 1017.53 1017.56
Wind_Speed
17 12 12 14 12 11 11 12 12 13 15 15 14 13 11 9 9 11 11 13 8 7
17 18 17 17 12 11 12 10 11 13 15 15 14 14 13 11 13 12 12 12 12 9
17 17 17 14 15 15 14 13 12 13 15 15 15 15 15 13 13 13 11 10 9 8
13 15 15 15 14 16 14 14 14 15 15 16 16 16 14 15 13 13 12 8 12 13
10 11 13 14 16 14 14 13 15 14 14 14 14 13 14 15 11 14 13 13 9 10
7 8 11 13 12 13 12 12 10 11 14 15 15 13 13 14 13 13 14 13 13 13
7 7 7 6 7 7 9 11 11 12 14 12 11 10 12 12 11 12 11 12 13 14
5 5 5 6 6 6 6 6 6 6 6 5 6 7 10 10 12 11 10 8 8 8
1 2 2 3 4 4 4 3 3 2 3 4 3 4 5 5 6 5 6 6 3 5
3 2 2 2 3 3 2 2 1 2 0 3 3 2 5 6 3 5 6 6 7 6
1 3 2 1 1 1 1 0 0 1 2 3 4 5 7 8 4 3 4 6 8 9
2 2 2 1 0 2 3 3 3 3 3 2 3 4 6 6 4 3 2 3 4 6
2 4 2 1 3 2 2 2 2 3 3 3 3 4 6 6 3 4 5 4 4 8
4 4 4 3 3 2 3 3 3 3 3 3 2 3 8 10 3 5 5 6 6 6
Wind_Direction
209 212 216 214 212 215 216 218 214 209 213 213 211 212 209 214 219 218 221 219 203 199
208 211 216 221 215 220 223 222 213 207 209 214 213 212 209 214 218 214 218 223 208 196
213 217 221 220 218 218 223 214 207 207 209 213 215 214 211 217 222 213 216 209 198 203
216 218 220 221 221 221 221 217 212 212 214 216 217 219 219 224 223 219 219 197 197 205
218 215 217 221 225 224 226 223 222 219 220 222 222 216 216 222 214 215 212 208 196 196
222 220 223 227 226 226 222 225 220 221 218 220 218 212 216 219 216 220 217 207 198 197
226 218 224 231 232 225 223 220 221 219 224 219 211 212 216 217 216 212 217 213 210 206
247 247 248 245 239 235 220 220 209 207 211 209 207 206 206 221 223 217 218 209 211 208
280 16 20 31 36 46 55 55 65 29 355 319 311 317 245 222 220 222 197 204 170 119
95 92 68 79 78 70 68 62 38 53 326 242 234 246 210 178 192 175 181 173 162 153
114 144 134 88 90 127 150 105 353 295 268 273 277 248 226 190 167 183 184 174 171 168
25 45 77 69 343 14 355 2 352 1 336 304 311 270 225 162 121 128 128 152 154 165
127 161 181 77 65 41 50 32 15 358 357 319 305 278 208 163 126 131 119 87 80 114
34 36 40 60 46 54 51 52 34 19 354 340 305 300 193 169 156 154 144 160 159 162